McComb, MS

6:35 AM CDT on August 21, 2017 (GMT -0500)
McComb-Pike County-Lewis

Weather History for KMCB - December, 2013

Change the Weather History Date:

Saturday, December 21, 2013

  Actual Average Record
Temperature  
Mean Temperature 69 °F -  
Max Temperature 78 °F 62 °F 79 °F (1990)
Min Temperature 59 °F 42 °F 22 °F (1973)
Cooling Degree Days 4    
Growing Degree Days 19 (Base 50)    
Moisture  
Dew Point 65 °F    
Average Humidity 83    
Maximum Humidity 94    
Minimum Humidity 68    
Precipitation  
Precipitation 0.25 in - - ()
Sea Level Pressure  
Sea Level Pressure 29.80 in    
Wind  
Wind Speed 14 mph (South)    
Max Wind Speed 22 mph    
Max Gust Speed 38 mph    
Visibility 9 miles    
Events Rain , Thunderstorm    
Averages and records for this station are not official NWS values.
T = Trace of Precipitation, MM = Missing Value Source: NWS Daily Summary

Daily Weather History Graph

Daily Weather History Graph

Search for Another Location

Airport or City:

Trip Planner

Search our weather history database for the weather conditions in past years. The results will help you decide how hot, cold, wet, or windy it might be!

Date:

Astronomy

Dec. 21, 2013 Rise Set
Actual Time 6:56 AM CST 5:03 PM CST
Civil Twilight 6:29 AM CST 5:30 PM CST
Nautical Twilight 5:59 AM CST 6:00 PM CST
Astronomical Twilight 5:29 AM CST 6:30 PM CST
Moon 9:05 PM CST 9:35 AM CST
Length of Visible Light 11h 00m
Length of Day
10h 07m
Waning Gibbous, 84% of the Moon is Illuminated
Dec 21
Waning Gibbous
Dec 25
Last Quarter
Jan 1
New
Jan 7
First Quarter
Jan 15
Full

Hourly Weather History & Observations

Time (CST) Temp. Dew Point Humidity Pressure Visibility Wind Dir Wind Speed Gust Speed Precip Events Conditions
12:21 AM 69.8 °F 64.4 °F 83% 29.94 in 10.0 mi SSE 8.1 mph - N/A   Overcast
12:53 AM 69.1 °F 64.9 °F 87% 29.90 in 10.0 mi SSE 15.0 mph 24.2 mph N/A   Overcast
1:10 AM 69.8 °F 64.4 °F 83% 29.92 in 10.0 mi South 16.1 mph 21.9 mph N/A   Mostly Cloudy
1:44 AM 68.0 °F 64.4 °F 88% 29.90 in 10.0 mi South 13.8 mph - N/A   Overcast
1:53 AM 68.0 °F 64.9 °F 90% 29.89 in 10.0 mi South 15.0 mph - N/A   Overcast
2:11 AM 68.0 °F 64.4 °F 88% 29.89 in 10.0 mi SSE 13.8 mph 20.7 mph N/A   Overcast
2:53 AM 69.1 °F 64.9 °F 87% 29.87 in 10.0 mi South 12.7 mph 25.3 mph N/A   Overcast
3:26 AM 69.8 °F 64.4 °F 83% 29.88 in 10.0 mi South 15.0 mph 23.0 mph N/A   Overcast
3:53 AM 69.1 °F 64.9 °F 87% 29.86 in 10.0 mi South 16.1 mph 25.3 mph N/A   Overcast
4:53 AM 69.1 °F 66.0 °F 90% 29.82 in 10.0 mi South 15.0 mph 25.3 mph N/A   Overcast
5:30 AM 69.8 °F 66.2 °F 88% 29.82 in 10.0 mi South 12.7 mph 25.3 mph N/A   Overcast
5:53 AM 69.1 °F 64.9 °F 87% 29.81 in 10.0 mi South 16.1 mph 21.9 mph N/A   Overcast
6:53 AM 70.0 °F 66.0 °F 87% 29.80 in 10.0 mi SSE 17.3 mph 29.9 mph N/A   Overcast
7:53 AM 71.1 °F 66.0 °F 84% 29.81 in 10.0 mi South 15.0 mph 28.8 mph N/A   Overcast
8:23 AM 71.6 °F 66.2 °F 83% 29.83 in 10.0 mi South 16.1 mph 29.9 mph N/A   Overcast
8:53 AM 73.0 °F 66.0 °F 79% 29.82 in 10.0 mi South 20.7 mph 38.0 mph N/A   Overcast
9:53 AM 73.0 °F 66.9 °F 81% 29.82 in 10.0 mi South 16.1 mph 33.4 mph N/A   Overcast
10:53 AM 73.9 °F 66.9 °F 79% 29.81 in 10.0 mi South 16.1 mph 24.2 mph N/A   Overcast
11:53 AM 75.0 °F 66.9 °F 76% 29.77 in 10.0 mi South 18.4 mph 27.6 mph N/A   Overcast
12:53 PM 75.9 °F 68.0 °F 76% 29.73 in 10.0 mi South 18.4 mph 25.3 mph N/A   Overcast
1:37 PM 77.0 °F 66.2 °F 69% 29.73 in 10.0 mi South 17.3 mph 24.2 mph N/A   Overcast
1:53 PM 78.1 °F 66.9 °F 68% 29.71 in 10.0 mi South 21.9 mph 32.2 mph N/A   Overcast
2:15 PM 77.0 °F 66.2 °F 69% 29.72 in 10.0 mi South 18.4 mph 34.5 mph N/A   Overcast
2:39 PM 77.0 °F 66.2 °F 69% 29.72 in 10.0 mi South 19.6 mph 28.8 mph N/A   Overcast
2:53 PM 77.0 °F 66.0 °F 69% 29.70 in 10.0 mi South 19.6 mph 29.9 mph N/A   Overcast
3:53 PM 75.9 °F 66.0 °F 71% 29.70 in 10.0 mi South 19.6 mph 27.6 mph N/A   Overcast
4:53 PM 75.0 °F 66.0 °F 73% 29.71 in 10.0 mi South 16.1 mph 25.3 mph N/A   Overcast
5:53 PM 75.0 °F 66.9 °F 76% 29.72 in 10.0 mi South 13.8 mph 24.2 mph N/A   Overcast
6:46 PM 75.2 °F 66.2 °F 73% 29.76 in 10.0 mi South 12.7 mph 26.5 mph N/A   Overcast
6:53 PM 75.0 °F 66.9 °F 76% 29.74 in 10.0 mi South 16.1 mph 27.6 mph N/A   Overcast
7:07 PM 73.4 °F 66.2 °F 78% 29.75 in 8.0 mi South 21.9 mph 28.8 mph 0.01 in Rain Light Rain
7:53 PM 73.9 °F 66.9 °F 79% 29.74 in 10.0 mi South 17.3 mph 26.5 mph 0.01 in   Overcast
8:14 PM 73.4 °F 68.0 °F 83% 29.76 in 8.0 mi South 16.1 mph 25.3 mph 0.00 in Rain Light Rain
8:53 PM 71.1 °F 69.1 °F 93% 29.75 in 7.0 mi South 12.7 mph 21.9 mph 0.02 in Rain Light Rain
9:39 PM 71.6 °F 69.8 °F 94% 29.76 in 9.0 mi South 16.1 mph 20.7 mph 0.00 in   Overcast
9:53 PM 71.1 °F 69.1 °F 93% 29.76 in 9.0 mi South 12.7 mph - 0.00 in   Overcast
10:02 PM 71.6 °F 69.8 °F 94% 29.78 in 9.0 mi South 10.4 mph 20.7 mph N/A   Overcast
10:08 PM 69.8 °F 68.0 °F 94% 29.79 in 8.0 mi WNW 10.4 mph - N/A   Overcast
10:30 PM 60.8 °F 59.0 °F 94% 29.81 in 2.5 mi WNW 13.8 mph 19.6 mph 0.07 in Rain Rain
10:33 PM 60.8 °F 59.0 °F 94% 29.81 in 3.0 mi WNW 15.0 mph 20.7 mph 0.10 in Rain Rain
10:36 PM 60.8 °F 57.2 °F 88% 29.81 in 3.0 mi WNW 15.0 mph 20.7 mph 0.10 in Rain , Thunderstorm Heavy Thunderstorms and Rain
10:53 PM 60.1 °F 57.9 °F 93% 29.82 in 3.0 mi WNW 10.4 mph 19.6 mph 0.17 in Rain , Thunderstorm Light Rain
11:01 PM 60.8 °F 57.2 °F 88% 29.83 in 4.0 mi WNW 8.1 mph - 0.02 in Rain Rain
11:53 PM 59.0 °F 57.0 °F 93% 29.83 in 10.0 mi WNW 9.2 mph - 0.05 in Rain Light Rain